| time (UTC) | temp F | wind direction | speed knots | gust knots | rain 1hr in | rain 24hr in | rain mn in | humidity % | barometer mb |
| 20260504110524 | 43 | 122 | 0.0 | 0.9 | 0.00 | 0.00 | 0.00 | 81 | 1014.8 |
| 20260504100521 | 42 | 122 | 0.0 | 0.9 | 0.00 | 0.00 | 0.00 | 81 | 1014.6 |
| 20260504081515 | 45 | 122 | 0.0 | 0.9 | 0.00 | 0.00 | 0.00 | 80 | 1015.1 |
| 20260504081014 | 45 | 122 | 0.0 | 0.0 | 0.00 | 0.00 | 0.00 | 79 | 1015.1 |
| 20260504080514 | 45 | 122 | 0.0 | 0.0 | 0.00 | 0.00 | 0.00 | 79 | 1015.1 |
| 20260504050551 | 41 | 122 | 0.0 | 0.9 | 0.00 | 0.00 | 0.00 | 74 | 1015.7 |
| 20260504045549 | 41 | 122 | 0.0 | 0.0 | 0.00 | 0.00 | 0.00 | 73 | 1015.8 |
| 20260504045054 | 41 | 122 | 0.0 | 0.0 | 0.00 | 0.00 | 0.00 | 71 | 1015.8 |
| 20260504044551 | 41 | 122 | 0.0 | 0.0 | 0.00 | 0.00 | 0.00 | 71 | 1015.8 |
| 20260504044048 | 41 | 122 | 0.0 | 0.9 | 0.00 | 0.00 | 0.00 | 70 | 1015.8 |
| 20260504043548 | 41 | 122 | 0.0 | 0.9 | 0.00 | 0.00 | 0.00 | 72 | 1015.8 |
| 20260504043047 | 40 | 122 | 0.0 | 0.0 | 0.00 | 0.00 | 0.00 | 71 | 1015.7 |
| 20260504042546 | 40 | 122 | 0.0 | 0.0 | 0.00 | 0.00 | 0.00 | 73 | 1015.8 |
| 20260504042045 | 40 | 122 | 0.0 | 0.9 | 0.00 | 0.00 | 0.00 | 74 | 1015.7 |
| 20260504041545 | 40 | 122 | 0.0 | 0.9 | 0.00 | 0.00 | 0.00 | 75 | 1015.8 |
| 20260504041046 | 40 | 122 | 0.0 | 0.9 | 0.00 | 0.00 | 0.00 | 73 | 1015.8 |
| 20260504040546 | 40 | 122 | 0.0 | 0.9 | 0.00 | 0.00 | 0.00 | 72 | 1015.7 |
| 20260504040045 | 41 | 122 | 0.0 | 0.0 | 0.00 | 0.00 | 0.00 | 72 | 1015.7 |
| 20260504035542 | 41 | 122 | 0.0 | 0.0 | 0.00 | 0.00 | 0.00 | 72 | 1015.7 |
| 20260504035042 | 41 | 122 | 0.0 | 0.0 | 0.00 | 0.00 | 0.00 | 73 | 1015.6 |
| 20260504034542 | 41 | 122 | 0.0 | 0.0 | 0.00 | 0.00 | 0.00 | 69 | 1015.6 |
| 20260504034042 | 41 | 122 | 0.0 | 0.0 | 0.00 | 0.00 | 0.00 | 70 | 1015.6 |
| 20260504033540 | 42 | 122 | 0.0 | 0.9 | 0.00 | 0.00 | 0.00 | 70 | 1015.6 |
| 20260504033049 | 42 | 122 | 0.0 | 0.9 | 0.00 | 0.00 | 0.00 | 70 | 1015.6 |
| 20260504032540 | 42 | 122 | 0.0 | 0.9 | 0.00 | 0.00 | 0.00 | 69 | 1015.6 |
| 20260504032041 | 42 | 122 | 0.0 | 0.9 | 0.00 | 0.00 | 0.00 | 69 | 1015.6 |
| 20260504031541 | 42 | 122 | 0.0 | 0.9 | 0.00 | 0.00 | 0.00 | 69 | 1015.6 |
| 20260504031042 | 42 | 122 | 0.0 | 0.9 | 0.00 | 0.00 | 0.00 | 69 | 1015.7 |
| 20260504030539 | 42 | 122 | 0.0 | 0.9 | 0.00 | 0.00 | 0.00 | 68 | 1015.7 |
| 20260504030039 | 42 | 122 | 0.0 | 0.9 | 0.00 | 0.00 | 0.00 | 68 | 1015.7 |
| 20260504025539 | 42 | 122 | 0.0 | 0.9 | 0.00 | 0.00 | 0.00 | 68 | 1015.7 |
| 20260504025039 | 42 | 122 | 0.0 | 0.9 | 0.00 | 0.00 | 0.00 | 67 | 1015.6 |
| 20260504024547 | 42 | 122 | 0.0 | 0.9 | 0.00 | 0.00 | 0.00 | 67 | 1015.6 |
| 20260504024037 | 43 | 122 | 0.0 | 0.9 | 0.00 | 0.00 | 0.00 | 67 | 1015.5 |
| 20260504023540 | 43 | 123 | 0.0 | 0.9 | 0.00 | 0.00 | 0.00 | 67 | 1015.5 |
| 20260504023037 | 43 | 123 | 0.9 | 0.9 | 0.00 | 0.00 | 0.00 | 65 | 1015.5 |
| 20260504022538 | 43 | 123 | 0.0 | 0.9 | 0.00 | 0.00 | 0.00 | 65 | 1015.4 |
| 20260504022040 | 43 | 123 | 0.0 | 0.9 | 0.00 | 0.00 | 0.00 | 64 | 1015.4 |
| 20260504021547 | 43 | 123 | 0.0 | 0.9 | 0.00 | 0.00 | 0.00 | 64 | 1015.3 |
| 20260504021038 | 44 | 123 | 0.0 | 0.9 | 0.00 | 0.00 | 0.00 | 65 | 1015.3 |
| 20260504020536 | 44 | 123 | 0.0 | 0.9 | 0.00 | 0.00 | 0.00 | 62 | 1015.3 |
| 20260504020036 | 44 | 123 | 0.0 | 0.9 | 0.00 | 0.00 | 0.00 | 63 | 1015.2 |
| 20260504015537 | 44 | 123 | 0.0 | 0.9 | 0.00 | 0.00 | 0.00 | 62 | 1015.1 |
| 20260504015037 | 44 | 123 | 0.0 | 0.9 | 0.00 | 0.00 | 0.00 | 63 | 1015.0 |
| 20260504014536 | 44 | 123 | 0.9 | 0.9 | 0.00 | 0.00 | 0.00 | 62 | 1015.0 |
| 20260504014035 | 45 | 122 | 0.9 | 0.9 | 0.00 | 0.00 | 0.00 | 61 | 1014.9 |
| 20260504013536 | 45 | 120 | 0.0 | 0.9 | 0.00 | 0.00 | 0.00 | 62 | 1014.9 |
| 20260504013044 | 45 | 120 | 0.9 | 0.9 | 0.00 | 0.00 | 0.00 | 61 | 1014.8 |
| 20260504012535 | 45 | 120 | 0.0 | 0.9 | 0.00 | 0.00 | 0.00 | 61 | 1014.8 |
| 20260504012035 | 45 | 120 | 0.0 | 0.0 | 0.00 | 0.00 | 0.00 | 61 | 1014.8 |
| 20260504011534 | 45 | 120 | 0.0 | 0.0 | 0.00 | 0.00 | 0.00 | 60 | 1014.8 |
| 20260504011035 | 46 | 120 | 0.0 | 0.9 | 0.00 | 0.00 | 0.00 | 61 | 1014.6 |
| 20260504010534 | 46 | 120 | 0.0 | 0.9 | 0.00 | 0.00 | 0.00 | 60 | 1014.6 |
| 20260504010034 | 46 | 120 | 0.0 | 0.9 | 0.00 | 0.00 | 0.00 | 59 | 1014.6 |
| 20260504005534 | 46 | 120 | 0.0 | 0.9 | 0.00 | 0.00 | 0.00 | 58 | 1014.6 |
| 20260504005034 | 47 | 120 | 0.0 | 1.7 | 0.00 | 0.00 | 0.00 | 59 | 1014.5 |
| 20260504004542 | 47 | 126 | 0.0 | 1.7 | 0.00 | 0.00 | 0.00 | 59 | 1014.5 |
| 20260504004034 | 47 | 122 | 0.9 | 0.9 | 0.00 | 0.00 | 0.00 | 58 | 1014.5 |
| 20260504003533 | 47 | 128 | 0.0 | 1.7 | 0.00 | 0.00 | 0.00 | 57 | 1014.5 |
| 20260504003032 | 48 | 123 | 0.9 | 0.9 | 0.00 | 0.00 | 0.00 | 57 | 1014.5 |
| 20260504002533 | 48 | 124 | 0.9 | 1.7 | 0.00 | 0.00 | 0.00 | 56 | 1014.4 |
| 20260504002035 | 48 | 123 | 0.9 | 1.7 | 0.00 | 0.00 | 0.00 | 56 | 1014.4 |
| 20260504001533 | 49 | 124 | 0.9 | 1.7 | 0.00 | 0.00 | 0.00 | 56 | 1014.4 |
| 20260504001032 | 49 | 133 | 0.9 | 1.7 | 0.00 | 0.00 | 0.00 | 54 | 1014.4 |
| 20260504000533 | 50 | 129 | 0.0 | 1.7 | 0.00 | 0.00 | 0.00 | 53 | 1014.5 |
| 20260504000033 | 51 | 129 | 0.0 | 1.7 | 0.00 | 0.00 | 0.00 | 53 | 1014.5 |
| 20260503235532 | 51 | 131 | 0.0 | 1.7 | 0.00 | 0.00 | 0.00 | 51 | 1014.5 |
| 20260503235032 | 52 | 132 | 0.9 | 1.7 | 0.00 | 0.00 | 0.00 | 52 | 1014.4 |
| 20260503234531 | 53 | 134 | 0.9 | 2.6 | 0.00 | 0.00 | 0.00 | 50 | 1014.4 |
| 20260503234031 | 54 | 139 | 0.9 | 2.6 | 0.00 | 0.00 | 0.00 | 49 | 1014.3 |
| 20260503233531 | 55 | 146 | 0.9 | 2.6 | 0.00 | 0.00 | 0.00 | 49 | 1014.2 |
| 20260503233033 | 56 | 125 | 0.9 | 1.7 | 0.00 | 0.00 | 0.00 | 46 | 1014.3 |
| 20260503232530 | 58 | 132 | 0.0 | 1.7 | 0.00 | 0.00 | 0.00 | 45 | 1014.2 |
| 20260503232030 | 59 | 132 | 0.9 | 1.7 | 0.00 | 0.00 | 0.00 | 40 | 1014.2 |
| 20260503231530 | 60 | 105 | 0.0 | 2.6 | 0.00 | 0.00 | 0.00 | 35 | 1014.2 |
| 20260503231030 | 61 | 113 | 0.0 | 3.5 | 0.00 | 0.00 | 0.00 | 30 | 1014.1 |
| 20260503230530 | 62 | 115 | 0.0 | 3.5 | 0.00 | 0.00 | 0.00 | 27 | 1014.0 |
| 20260503230030 | 62 | 125 | 0.0 | 3.5 | 0.00 | 0.00 | 0.00 | 27 | 1014.1 |
| 20260503225529 | 62 | 139 | 0.9 | 3.5 | 0.00 | 0.00 | 0.00 | 27 | 1014.0 |
| 20260503225029 | 63 | 130 | 0.9 | 3.5 | 0.00 | 0.00 | 0.00 | 26 | 1014.0 |
| 20260503224528 | 63 | 124 | 0.0 | 6.1 | 0.00 | 0.00 | 0.00 | 26 | 1014.0 |
| 20260503224028 | 62 | 12 | 1.7 | 6.1 | 0.00 | 0.00 | 0.00 | 27 | 1014.0 |
| 20260503223528 | 62 | 156 | 0.9 | 4.3 | 0.00 | 0.00 | 0.00 | 25 | 1014.0 |
| 20260503223028 | 62 | 144 | 0.0 | 7.0 | 0.00 | 0.00 | 0.00 | 28 | 1014.0 |
| 20260503222527 | 62 | 169 | 3.5 | 11.3 | 0.00 | 0.00 | 0.00 | 25 | 1014.1 |
| 20260503222027 | 62 | 146 | 2.6 | 11.3 | 0.00 | 0.00 | 0.00 | 27 | 1014.1 |
| 20260503221527 | 63 | 156 | 4.3 | 9.6 | 0.00 | 0.00 | 0.00 | 26 | 1014.1 |
| 20260503221029 | 63 | 140 | 1.7 | 3.5 | 0.00 | 0.00 | 0.00 | 26 | 1014.2 |
| 20260503220526 | 63 | 182 | 0.0 | 3.5 | 0.00 | 0.00 | 0.00 | 29 | 1014.1 |
| 20260503220027 | 63 | 152 | 0.9 | 5.2 | 0.00 | 0.00 | 0.00 | 26 | 1014.1 |
| 20260503215526 | 62 | 142 | 0.9 | 8.7 | 0.00 | 0.00 | 0.00 | 27 | 1014.1 |
| 20260503215024 | 62 | 208 | 1.7 | 13.0 | 0.00 | 0.00 | 0.00 | 25 | 1014.2 |
| 20260503214524 | 62 | 76 | 5.2 | 13.0 | 0.00 | 0.00 | 0.00 | 25 | 1014.1 |
| 20260503214024 | 63 | 96 | 1.7 | 4.3 | 0.00 | 0.00 | 0.00 | 26 | 1014.2 |
| 20260503213525 | 62 | 123 | 0.9 | 8.7 | 0.00 | 0.00 | 0.00 | 26 | 1014.1 |
| 20260503213028 | 62 | 167 | 3.5 | 8.7 | 0.00 | 0.00 | 0.00 | 29 | 1014.3 |
| 20260503212523 | 63 | 161 | 1.7 | 7.0 | 0.00 | 0.00 | 0.00 | 27 | 1014.2 |
| 20260503212022 | 63 | 90 | 2.6 | 7.0 | 0.00 | 0.00 | 0.00 | 25 | 1014.3 |
| 20260503211534 | 62 | 203 | 1.7 | 8.7 | 0.00 | 0.00 | 0.00 | 25 | 1014.3 |
| 20260503211022 | 62 | 112 | 4.3 | 8.7 | 0.00 | 0.00 | 0.00 | 27 | 1014.3 |
| 20260503210522 | 63 | 94 | 0.9 | 6.1 | 0.00 | 0.00 | 0.00 | 26 | 1014.3 |
| 20260503210021 | 62 | 77 | 2.6 | 7.0 | 0.00 | 0.00 | 0.00 | 24 | 1014.4 |
| 20260503205526 | 62 | 91 | 2.6 | 10.4 | 0.00 | 0.00 | 0.00 | 26 | 1014.4 |
| 20260503205020 | 62 | 34 | 1.7 | 5.2 | 0.00 | 0.00 | 0.00 | 26 | 1014.4 |
| 20260503204518 | 62 | 74 | 1.7 | 5.2 | 0.00 | 0.00 | 0.00 | 29 | 1014.3 |
| 20260503204017 | 62 | 130 | 0.9 | 7.8 | 0.00 | 0.00 | 0.00 | 30 | 1014.3 |
| 20260503203517 | 61 | 141 | 2.6 | 7.8 | 0.00 | 0.00 | 0.00 | 26 | 1014.4 |
| 20260503203020 | 62 | 222 | 2.6 | 7.0 | 0.00 | 0.00 | 0.00 | 29 | 1014.6 |
| 20260503202517 | 62 | 115 | 3.5 | 7.0 | 0.00 | 0.00 | 0.00 | 32 | 1014.6 |
| 20260503202017 | 61 | 146 | 2.6 | 7.8 | 0.00 | 0.00 | 0.00 | 27 | 1014.7 |
| 20260503201516 | 61 | 193 | 3.5 | 7.0 | 0.00 | 0.00 | 0.00 | 31 | 1014.6 |
| 20260503201015 | 61 | 87 | 3.5 | 7.0 | 0.00 | 0.00 | 0.00 | 33 | 1014.7 |
| 20260503200516 | 60 | 63 | 2.6 | 9.6 | 0.00 | 0.00 | 0.00 | 27 | 1014.7 |
| 20260503200016 | 61 | 132 | 4.3 | 11.3 | 0.00 | 0.00 | 0.00 | 27 | 1015.0 |
| 20260503195517 | 61 | 72 | 2.6 | 9.6 | 0.00 | 0.00 | 0.00 | 27 | 1014.8 |
| 20260503195017 | 61 | 141 | 1.7 | 11.3 | 0.00 | 0.00 | 0.00 | 29 | 1015.0 |
| 20260503194515 | 61 | 168 | 4.3 | 11.3 | 0.00 | 0.00 | 0.00 | 27 | 1015.1 |
| 20260503194014 | 61 | 197 | 3.5 | 8.7 | 0.00 | 0.00 | 0.00 | 28 | 1015.0 |
| 20260503193513 | 61 | 37 | 0.9 | 7.0 | 0.00 | 0.00 | 0.00 | 30 | 1015.2 |
| 20260503193030 | 61 | 158 | 2.6 | 6.1 | 0.00 | 0.00 | 0.00 | 31 | 1015.3 |
| 20260503192511 | 60 | 209 | 0.9 | 9.6 | 0.00 | 0.00 | 0.00 | 33 | 1015.3 |
| 20260503192013 | 59 | 72 | 5.2 | 9.6 | 0.00 | 0.00 | 0.00 | 28 | 1015.5 |
| 20260503191514 | 59 | 111 | 1.7 | 12.2 | 0.00 | 0.00 | 0.00 | 31 | 1015.6 |
| 20260503191011 | 60 | 45 | 4.3 | 15.6 | 0.00 | 0.00 | 0.00 | 33 | 1015.7 |
| 20260503190512 | 60 | 31 | 4.3 | 11.3 | 0.00 | 0.00 | 0.00 | 30 | 1015.8 |
| 20260503190022 | 60 | 63 | 6.1 | 11.3 | 0.00 | 0.00 | 0.00 | 30 | 1015.7 |
| 20260503185511 | 60 | 141 | 3.5 | 9.6 | 0.00 | 0.00 | 0.00 | 32 | 1015.7 |
| 20260503185010 | 59 | 72 | 5.2 | 9.6 | 0.00 | 0.00 | 0.00 | 29 | 1016.0 |
| 20260503184509 | 60 | 350 | 4.3 | 9.6 | 0.00 | 0.00 | 0.00 | 32 | 1016.0 |
| 20260503184008 | 60 | 65 | 2.6 | 7.0 | 0.00 | 0.00 | 0.00 | 30 | 1016.0 |
| 20260503183507 | 59 | 75 | 2.6 | 11.3 | 0.00 | 0.00 | 0.00 | 32 | 1015.9 |
| 20260503183005 | 59 | 104 | 3.5 | 13.9 | 0.00 | 0.00 | 0.00 | 37 | 1016.0 |
| 20260503182505 | 59 | 168 | 4.3 | 13.9 | 0.00 | 0.00 | 0.00 | 32 | 1016.1 |
| 20260503182008 | 59 | 187 | 2.6 | 8.7 | 0.00 | 0.00 | 0.00 | 34 | 1016.1 |
| 20260503181505 | 58 | 153 | 4.3 | 8.7 | 0.00 | 0.00 | 0.00 | 32 | 1016.2 |
| 20260503181004 | 58 | 183 | 4.3 | 8.7 | 0.00 | 0.00 | 0.00 | 34 | 1016.2 |
| 20260503180504 | 58 | 246 | 2.6 | 7.8 | 0.00 | 0.00 | 0.00 | 35 | 1016.1 |
| 20260503180003 | 58 | 207 | 2.6 | 8.7 | 0.00 | 0.00 | 0.00 | 36 | 1016.1 |
| 20260503175502 | 58 | 209 | 4.3 | 8.7 | 0.00 | 0.00 | 0.00 | 35 | 1016.2 |
| 20260503175003 | 58 | 145 | 2.6 | 8.7 | 0.00 | 0.00 | 0.00 | 34 | 1016.2 |
| 20260503174501 | 58 | 94 | 3.5 | 10.4 | 0.00 | 0.00 | 0.00 | 40 | 1016.3 |
| 20260503174100 | 57 | 64 | 5.2 | 13.0 | 0.00 | 0.00 | 0.00 | 32 | 1016.3 |
| 20260503173601 | 57 | 160 | 1.7 | 13.0 | 0.00 | 0.00 | 0.00 | 34 | 1016.4 |
| 20260503173107 | 56 | 122 | 2.6 | 16.5 | 0.00 | 0.00 | 0.00 | 34 | 1016.5 |
| 20260503172601 | 56 | 63 | 7.0 | 16.5 | 0.00 | 0.00 | 0.00 | 33 | 1016.5 |
| 20260503172059 | 57 | 129 | 2.6 | 0.0 | 0.00 | 0.00 | 0.00 | 34 | 1016.6 |
| 20260503171601 | 56 | 316 | 1.7 | 12.2 | 0.00 | 0.00 | 0.00 | 37 | 1016.5 |
| 20260503171058 | 56 | 159 | 7.0 | 14.8 | 0.00 | 0.00 | 0.00 | 32 | 1016.6 |
| 20260503170559 | 56 | 359 | 4.3 | 14.8 | 0.00 | 0.00 | 0.00 | 36 | 1016.7 |
| 20260503150544 | 50 | 41 | 0.9 | 5.2 | 0.00 | 0.00 | 0.00 | 41 | 1017.6 |
| 20260503131034 | 48 | 188 | 0.9 | 11.3 | 0.00 | 0.00 | 0.00 | 50 | 1017.7 |
| 20260503130530 | 47 | 90 | 1.7 | 11.3 | 0.00 | 0.00 | 0.00 | 55 | 1017.9 |